User: anonymous   Login
Location: Unspecified
(0.0000°N, 0.0000°E)
Time: 19:47:31
(UTC+00:00)
Language:

Orbcomm D8 (FM36) - Orbit

View from above orbital plane
View from above orbital plane
View from above satellite
View from above satellite

Ground track
Ground track

The orbit data is extracted from the following two-line orbital elements,

1 25984U 99065E   19077.91969317 +.00000201 +00000-0 +12436-3 0  9998
2 25984 045.0392 035.7129 0002123 019.6247 340.4681 14.32723364006936
Epoch (UTC): 18 March 2019 22:04:21
Eccentricity: 0.0002123
inclination: 45.0392°
perigee height: 781 km
apogee height: 784 km
right ascension of ascending node: 35.7129°
argument of perigee: 19.6247°
revolutions per day: 14.32723364
mean anomaly at epoch: 340.4681°
orbit number at epoch: 693

The dashed part of the orbit path shows where the satellite is in the earth's shadow,  

DLR